Weather in Anikanovo

Russia / Oryol Oblast     53˚16′33″N   36˚24′13″E
temp.,
°C
wind,
m/s
gust,
m/s
humid.,
%
clouds,
%
prec.,
mm/h
press.,
hPa
HPBL,
m
16 january, sat
sat1600:00−11˚ese3496100 0.4 1008104
03:00−12˚ene3396100 0.6 100773
06:00−13˚ene3596100 0.4 100697
09:00−13˚n2396100 0.7 100769
12:00−13˚nw359497 0.1 1008261
15:00−12˚wnw589498 0.3 1009370
18:00−14˚w5994100 0.3 1009405
21:00−15˚w5995100 0.6 1010419
17 january, sun
sun1700:00−16˚wnw5995100 0.3 1011401
03:00−16˚w4796100 0.7 1012396
06:00−15˚wnw4796100 0.8 1012418
09:00−16˚nnw4695100 1.6 1014432
12:00−17˚nnw3593100 0.2 1015353
15:00−18˚nnw2393100 0.3 1015330
18:00−20˚nnw1297100 0.0 101722
21:00−20˚n3596100 0.0 1017168
18 january, mon
mon1800:00−23˚ne229684 0.0 101820
03:00−24˚nne129692 0.0 101920
06:00−24˚n229684 0.0 101920
09:00−26˚e119787 0.0 102020
12:00−22˚n1194100 0.0 1020131
15:00−20˚nw1192100 0.0 1019190
18:00−23˚nw1195100 0.0 102020
21:00−24˚nw1196100 0.0 102020
19 january, tue
tue1900:00−22˚wnw1197100 0.0 102020
03:00−22˚wnw2295100 0.0 102025
06:00−21˚nw1295100 0.0 101945
09:00−21˚wnw1193100 0.0 101920
12:00−18˚nw2389100 0.0 1019212
15:00−17˚wnw2392100 0.0 1019215
18:00−20˚w2396100 0.0 101920
21:00−21˚wnw239998 0.0 102120
20 january, wed
wed2000:00−21˚wnw239940 0.0 102120
03:00−21˚w239946 0.0 102220
06:00−21˚w239954 0.0 102320
09:00−21˚wsw229954 0.0 102420
12:00−16˚sw239535 0.0 1025117
15:00−15˚ssw359517 0.0 1024164
18:00−17˚s34950 0.0 102450
21:00−17˚s47960 0.0 1024124